When you browse on this site, cookies collect data to enhance your experience and personalize the content and advertising you see.
Visit our Privacy Policy to learn more. By continuing to use the site, you agree to this use of cookies and data.

Hourly Weather Saint George's

Today, 25 September, Friday

Time Temperature Precipitation Wind Pressure Humidity
00:00 +29°C° 0 mm 6 mps 753 mmHg 80%
01:00 +29°C° 0 mm 6 mps 753 mmHg 81%
02:00 +29°C° 0 mm 5 mps 752 mmHg 81%
03:00 +29°C° 0 mm 5 mps 752 mmHg 81%
04:00 +29°C° 0 mm 5 mps 752 mmHg 81%
05:00 +29°C° 0 mm 5 mps 752 mmHg 81%
06:00 +29°C° 0 mm 5 mps 753 mmHg 79%
07:00 +30°C° 0 mm 6 mps 753 mmHg 78%
08:00 +30°C° 0 mm 6 mps 754 mmHg 76%
09:00 +30°C° 0 mm 6 mps 754 mmHg 74%
10:00 +32°C° 0 mm 6 mps 754 mmHg 73%
11:00 +32°C° 0 mm 6 mps 754 mmHg 71%
12:00 +32°C° 0 mm 5 mps 753 mmHg 70%
13:00 +32°C° 0 mm 5 mps 753 mmHg 70%
14:00 +32°C° 0 mm 5 mps 752 mmHg 69%
15:00 +32°C° 0 mm 5 mps 752 mmHg 70%
16:00 +32°C° 0 mm 5 mps 751 mmHg 71%
17:00 +30°C° 0 mm 5 mps 751 mmHg 71%
18:00 +30°C° 0 mm 5 mps 751 mmHg 73%
19:00 +30°C° 0 mm 4 mps 752 mmHg 76%
20:00 +29°C° 0 mm 4 mps 752 mmHg 78%
21:00 +29°C° 0 mm 4 mps 752 mmHg 78%
22:00 +29°C° 0 mm 4 mps 752 mmHg 79%
23:00 +29°C° 0 mm 4 mps 752 mmHg 79%

Tomorrow, 26 September, Saturday

Time Temperature Precipitation Wind Pressure Humidity
00:00 +29°C° 0 mm 4 mps 752 mmHg 80%
01:00 +29°C° 0 mm 4 mps 751 mmHg 80%
02:00 +29°C° 0 mm 4 mps 751 mmHg 81%
03:00 +29°C° 1 mm 4 mps 751 mmHg 82%
04:00 +29°C° 1 mm 4 mps 751 mmHg 83%
05:00 +29°C° 1 mm 4 mps 751 mmHg 85%
06:00 +29°C° 0.2 mm 4 mps 751 mmHg 82%
07:00 +30°C° 0.2 mm 4 mps 751 mmHg 79%
08:00 +30°C° 0.2 mm 4 mps 752 mmHg 76%
09:00 +32°C° 0.2 mm 4 mps 752 mmHg 73%
10:00 +32°C° 0.2 mm 4 mps 752 mmHg 71%
11:00 +33°C° 0.2 mm 4 mps 752 mmHg 68%
12:00 +32°C° 1.1 mm 4 mps 751 mmHg 70%
13:00 +32°C° 1.1 mm 5 mps 751 mmHg 72%
14:00 +32°C° 1.1 mm 5 mps 750 mmHg 74%
15:00 +30°C° 0.1 mm 5 mps 750 mmHg 75%
16:00 +30°C° 0.1 mm 5 mps 749 mmHg 76%
17:00 +30°C° 0.1 mm 4 mps 749 mmHg 77%
18:00 +29°C° 0.4 mm 5 mps 749 mmHg 79%
19:00 +29°C° 0.4 mm 5 mps 750 mmHg 82%
20:00 +29°C° 0.4 mm 6 mps 750 mmHg 84%
21:00 +29°C° 0.1 mm 5 mps 750 mmHg 84%
22:00 +29°C° 0.1 mm 5 mps 750 mmHg 84%
23:00 +29°C° 0.1 mm 5 mps 750 mmHg 83%

Day after tomorrow, 27 September, Sunday

Time Temperature Precipitation Wind Pressure Humidity
00:00 +29°C° 0.1 mm 5 mps 750 mmHg 84%
01:00 +29°C° 0.1 mm 5 mps 749 mmHg 84%
02:00 +29°C° 0.1 mm 5 mps 749 mmHg 85%
03:00 +29°C° 0 mm 5 mps 749 mmHg 84%
04:00 +29°C° 0 mm 5 mps 749 mmHg 83%
05:00 +28°C° 0 mm 4 mps 749 mmHg 82%
06:00 +29°C° 0.1 mm 4 mps 749 mmHg 79%
07:00 +30°C° 0.1 mm 4 mps 749 mmHg 76%
08:00 +30°C° 0.1 mm 4 mps 750 mmHg 74%
09:00 +32°C° 0.3 mm 4 mps 750 mmHg 72%
10:00 +32°C° 0.3 mm 4 mps 750 mmHg 70%
11:00 +33°C° 0.3 mm 4 mps 750 mmHg 68%
12:00 +33°C° 0 mm 4 mps 749 mmHg 69%
13:00 +33°C° 0 mm 4 mps 749 mmHg 69%
14:00 +32°C° 0 mm 4 mps 748 mmHg 70%
15:00 +32°C° 0.1 mm 4 mps 748 mmHg 71%
16:00 +32°C° 0.1 mm 4 mps 748 mmHg 72%
17:00 +32°C° 0.1 mm 4 mps 747 mmHg 73%
18:00 +30°C° 0 mm 4 mps 748 mmHg 75%
19:00 +30°C° 0 mm 4 mps 748 mmHg 76%
20:00 +29°C° 0 mm 4 mps 749 mmHg 78%
21:00 +29°C° 0.3 mm 4 mps 749 mmHg 78%
22:00 +29°C° 0.3 mm 4 mps 749 mmHg 79%
23:00 +29°C° 0.3 mm 4 mps 749 mmHg 79%

28 September, Monday

Time Temperature Precipitation Wind Pressure Humidity
00:00 +30°C° 0.4 mm 5 mps 748 mmHg 78%
01:00 +30°C° 0.4 mm 5 mps 748 mmHg 76%
02:00 +30°C° 0.4 mm 5 mps 748 mmHg 74%
03:00 +30°C° 0 mm 5 mps 748 mmHg 75%
04:00 +30°C° 0 mm 5 mps 748 mmHg 75%
05:00 +30°C° 0 mm 5 mps 748 mmHg 76%
06:00 +30°C° 0 mm 5 mps 748 mmHg 75%
07:00 +30°C° 0 mm 6 mps 749 mmHg 75%
08:00 +32°C° 0 mm 6 mps 749 mmHg 75%
09:00 +32°C° 0.1 mm 6 mps 749 mmHg 73%
10:00 +32°C° 0.1 mm 6 mps 750 mmHg 72%
11:00 +33°C° 0.1 mm 6 mps 750 mmHg 71%
12:00 +32°C° 0.9 mm 7 mps 749 mmHg 73%
13:00 +32°C° 0.9 mm 7 mps 749 mmHg 75%
14:00 +32°C° 0.9 mm 7 mps 748 mmHg 77%
15:00 +30°C° 0.5 mm 7 mps 748 mmHg 79%
16:00 +30°C° 0.5 mm 7 mps 748 mmHg 80%
17:00 +30°C° 0.5 mm 7 mps 748 mmHg 81%
18:00 +30°C° 0.1 mm 7 mps 748 mmHg 80%
19:00 +30°C° 0.1 mm 7 mps 749 mmHg 78%
20:00 +30°C° 0.1 mm 7 mps 749 mmHg 77%
21:00 +30°C° 0 mm 7 mps 749 mmHg 78%
22:00 +30°C° 0 mm 7 mps 750 mmHg 78%
23:00 +30°C° 0 mm 7 mps 750 mmHg 78%

29 September, Tuesday

Time Temperature Precipitation Wind Pressure Humidity
00:00 +30°C° 0 mm 7 mps 749 mmHg 78%
01:00 +30°C° 0 mm 7 mps 749 mmHg 79%
02:00 +30°C° 0 mm 7 mps 749 mmHg 79%
03:00 +30°C° 0.1 mm 7 mps 749 mmHg 79%
04:00 +30°C° 0.1 mm 7 mps 749 mmHg 78%
05:00 +30°C° 0.1 mm 7 mps 749 mmHg 78%
06:00 +30°C° 0.1 mm 7 mps 750 mmHg 77%
07:00 +30°C° 0.1 mm 7 mps 750 mmHg 75%
08:00 +32°C° 0.1 mm 7 mps 751 mmHg 73%
09:00 +32°C° 0.1 mm 7 mps 751 mmHg 72%
10:00 +32°C° 0.1 mm 7 mps 751 mmHg 71%
11:00 +32°C° 0.1 mm 6 mps 751 mmHg 70%
12:00 +32°C° 0.2 mm 6 mps 751 mmHg 71%
13:00 +32°C° 0.2 mm 6 mps 750 mmHg 72%
14:00 +32°C° 0.2 mm 5 mps 750 mmHg 73%
15:00 +32°C° 0.1 mm 5 mps 750 mmHg 74%
16:00 +30°C° 0.1 mm 5 mps 749 mmHg 75%
17:00 +30°C° 0.1 mm 5 mps 749 mmHg 76%
18:00 +30°C° 0.1 mm 5 mps 750 mmHg 78%
19:00 +30°C° 0.1 mm 5 mps 750 mmHg 79%
20:00 +29°C° 0.1 mm 6 mps 751 mmHg 80%
21:00 +30°C° 0.7 mm 6 mps 751 mmHg 79%
22:00 +30°C° 0.7 mm 6 mps 751 mmHg 78%
23:00 +30°C° 0.7 mm 7 mps 751 mmHg 76%

30 September, Wednesday

Time Temperature Precipitation Wind Pressure Humidity
00:00 +30°C° 0.7 mm 7 mps 751 mmHg 76%
01:00 +30°C° 0.7 mm 7 mps 750 mmHg 76%
02:00 +30°C° 0.7 mm 7 mps 750 mmHg 76%
03:00 +30°C° 0.8 mm 7 mps 750 mmHg 75%
04:00 +30°C° 0.8 mm 7 mps 750 mmHg 73%
05:00 +31°C° 0.8 mm 8 mps 750 mmHg 72%
06:00 +31°C° 0.6 mm 8 mps 750 mmHg 74%
07:00 +31°C° 0.6 mm 8 mps 751 mmHg 76%
08:00 +31°C° 0.6 mm 8 mps 751 mmHg 78%
09:00 +31°C° 0.6 mm 8 mps 752 mmHg 76%
10:00 +32°C° 0.6 mm 9 mps 752 mmHg 75%
11:00 +32°C° 0.6 mm 9 mps 752 mmHg 73%
12:00 +32°C° 0.7 mm 9 mps 751 mmHg 75%
13:00 +32°C° 0.7 mm 9 mps 751 mmHg 76%
14:00 +31°C° 0.7 mm 9 mps 750 mmHg 78%
15:00 +31°C° 0.8 mm 9 mps 750 mmHg 78%
16:00 +31°C° 0.8 mm 9 mps 750 mmHg 77%
17:00 +31°C° 0.8 mm 9 mps 750 mmHg 77%
18:00 +31°C° 2 mm 9 mps 750 mmHg 77%
19:00 +31°C° 2 mm 9 mps 751 mmHg 77%
20:00 +31°C° 2 mm 10 mps 751 mmHg 77%
21:00 +31°C° 0.6 mm 9 mps 751 mmHg 77%
22:00 +31°C° 0.6 mm 9 mps 752 mmHg 78%
23:00 +31°C° 0.6 mm 9 mps 752 mmHg 78%
Show more